Tracking 30923 objects as of 30-Jun-2025
HD Live streaming from Space Station
objects crossing your sky now

INTELSAT 3-F2

Track INTELSAT 3-F2 now!
INTELSAT 3-F2 is classified as:


NORAD ID: 3623
Int'l Code: 1968-116A
Perigee: 38,468.1 km
Apogee: 39,289.4 km
Inclination: 4.9 °
Period: 1,596.6 minutes
Semi major axis: 45249 km
RCS: 2.5118 m2 (large)
Launch date: December 19, 1968
Source: International Telecommunications Satellite Organization (ITSO)
Launch site: AIR FORCE EASTERN TEST RANGE (AFETR)
Your satellite tracking list
Your tracking list is empty




NASA's NSSDC Master Catalog

Two Line Element Set (TLE):
1  3623U 68116A   25181.88273735 -.00000091  00000-0  00000+0 0  9996
2  3623   4.9155 296.8833 0090753  84.1884 310.8970  0.90194166122881
Source of the keplerian elements: AFSPC